Regional Weather Roundup
Issued by NWS

Home | Current Version | Previous Version | Graphics & Text | Print | Product List | Glossary On
Versions: 1 2 3 4 5 6 7 8 9 10 11 12 13 14 15 16 17 18 19 20 21 22 23 24 25 26 27 28 29 30 31 32 33 34 35 36 37 38 39 40 41 42 43 44 45 46 47 48 49 50
000
ASUS43 KTOP 271159
RWRKS

WEATHER ROUNDUP FOR KANSAS
NATIONAL WEATHER SERVICE GOODLAND KS
700 AM CDT SUN MAY 27 2018

NOTE:  "FAIR" INDICATES FEW OR NO CLOUDS BELOW 12,000 FEET WITH NO
SIGNIFICANT WEATHER AND/OR OBSTRUCTIONS TO VISIBILITY.

KSZ001>006-013>018-027>032-041>047-271300-
NORTHWEST KANSAS

CITY           SKY/WX    TMP DP  RH WIND       PRES   REMARKS
GOODLAND       CLOUDY    68  61  78 S21       29.88R
6HR MIN TEMP:  63; 6HR MAX TEMP:  71;

HAYS           PTCLDY    65  63  93 SE5       29.89R
HILL CITY      MOCLDY    69  66  90 S7        29.87R
6HR MIN TEMP:  67; 6HR MAX TEMP:  73;

RUSSELL        MOCLDY    68  67  96 S9        29.86S
6HR MIN TEMP:  65; 6HR MAX TEMP:  72;

$$

KSZ061>065-074>080-084>089-271300-
SOUTHWEST KANSAS

CITY           SKY/WX    TMP DP  RH WIND       PRES   REMARKS
DODGE CITY     CLOUDY    68  65  90 S10       29.89R FOG
6HR MIN TEMP:  68; 6HR MAX TEMP:  73;

GARDEN CITY    CLOUDY    65  62  90 SE10      29.89S
6HR MIN TEMP:  65; 6HR MAX TEMP:  73;

GREAT BEND     MOCLDY    68  66  93 S6        29.89R
LIBERAL        CLOUDY    68  64  87 SE8       29.90R
$$

KSZ066>073-081>083-090>101-271300-
SOUTHEAST KANSAS

CITY           SKY/WX    TMP DP  RH WIND       PRES   REMARKS
CHANUTE        CLEAR     71  68  90 S7        29.89R
6HR MIN TEMP:  66; 6HR MAX TEMP:  72;

COFFEYVILLE    CLEAR     69  67  93 E3        29.87R
6HR MIN TEMP:  67; 6HR MAX TEMP:  71;

HUTCHINSON     MOCLDY    68  65  90 SE3       29.89R
6HR MIN TEMP:  65; 6HR MAX TEMP:  72;

MEDICINE LODGE   N/A     68  66  93 E6        29.88R
NEWTON         CLEAR     68  64  87 S6        29.90R
PARSONS        CLEAR     67  67 100 CALM      29.89R
6HR MIN TEMP:  65; 6HR MAX TEMP:  73;

WICHITA INTL   CLOUDY    68  65  90 CALM      29.88R
6HR MIN TEMP:  66; 6HR MAX TEMP:  72;

WICHITA JABRA  CLEAR     69  65  86 S5        29.89R
6HR MIN TEMP:  68; 6HR MAX TEMP:  72;

WICHITA MCCONL CLEAR     69  63  83 S3        29.88R
WINFIELD       CLEAR     70  66  87 CALM      29.89R
6HR MIN TEMP:  66; 6HR MAX TEMP:  71;

$$

KSZ007>012-019>026-033>040-048>060-102>105-271300-
NORTHEAST KANSAS

CITY           SKY/WX    TMP DP  RH WIND       PRES   REMARKS
CONCORDIA      PTCLDY    73  65  75 SW7       29.86R
6HR MIN TEMP:  71; 6HR MAX TEMP:  76;

EMPORIA        CLEAR     67  64  90 CALM      29.88R
6HR MIN TEMP:  64; 6HR MAX TEMP:  70;

LAWRENCE       CLEAR     69  68  96 CALM      29.87R
6HR MIN TEMP:  66; 6HR MAX TEMP:  76;

MANHATTAN      CLOUDY    67  65  93 CALM      29.87R
6HR MIN TEMP:  64; 6HR MAX TEMP:  76;

OLATHE IND     MOSUNNY   71  68  90 S5        29.89R
6HR MIN TEMP:  68; 6HR MAX TEMP:  75;

OLATHE EXE     SUNNY     71  67  87 SW3       29.88R
6HR MIN TEMP:  69; 6HR MAX TEMP:  74;

SALINA         MOCLDY    71  66  84 CALM      29.88R
6HR MIN TEMP:  67; 6HR MAX TEMP:  71;

TOPEKA BILLARD CLEAR     69  68  96 CALM      29.86R
6HR MIN TEMP:  68; 6HR MAX TEMP:  77;

TOPEKA FORBES  CLEAR     69  67  93 CALM      29.87R
6HR MIN TEMP:  67; 6HR MAX TEMP:  76;

$$




USA.gov is the U.S. government's official web portal to all federal, state and local government web resources and services.